Preview of NWS' New Version of Forecast
This preview is not operational and should not be used for support decisions.
Latest weather observations around

Charleston, Charleston Air Force Base (KCHS)

Using English Units (Switch to International System of Units)
Date/ Time (EDT) Wind (mph) Vis. (mi) Weather Sky Cond. Temp (°F) Rel. Humidity Wind Chill (°F) Heat Index (°F) Pressure Precip. (in)
Air Dwpt 6 hour Altimeter (inHg) Sea level (inHg) 1 hr 3 hr 6 hr
Max Min
May 21 15:56 S 14 10 Mostly Cloudy FEW030 SCT040 BKN120 83 70     65%   87 30.13 30.12      
May 21 14:56 SSE 13 10 Mostly Cloudy FEW030 SCT040 BKN120 84 71     65%   89 30.14 30.14      
May 21 13:56 SSE 9 10 Mostly Cloudy SCT035 SCT050 BKN200 85 70     61%   89 30.15 30.14      
May 21 12:56 SSE 9 10 Mostly Cloudy SCT030 BKN045 BKN200 82 69     65%   85 30.17 30.17      
May 21 11:56 SE 5 10 Mostly Cloudy SCT020 BKN030 BKN200 81 70     69%   84 30.18 30.18      
May 21 10:56 SSW 3 10 Mostly Cloudy SCT017 BKN120 BKN200 79 71     77%   82 30.18 30.18      
May 21 09:56 Calm 10 Cloudy FEW020 SCT120 OVC200 78 70     76%   79 30.19 30.18      
May 21 08:56 Calm 10 Cloudy FEW020 SCT120 OVC200 75 72     90%   76 30.18 30.18      
May 21 07:56 N 3 10 Mostly Cloudy FEW025 SCT120 BKN200 73 71     94%   74 30.18 30.17      
May 21 06:56 Calm 6 Fog/Mist FEW025 FEW120 BKN200 70 69     97%     30.16 30.15      
May 21 05:56 Calm 7 Fog FEW025 FEW120 SCT200 71 70     96%   72 30.15 30.14      
May 21 04:56 N 5 7 Fog FEW025 FEW150 OVC220 71 69     93%   72 30.14 30.14      
May 21 03:56 SSE 3 7 Fog FEW030 SCT150 OVC220 72 70     93%   73 30.13 30.12      
May 21 02:56 S 3 8 Fog FEW030 SCT150 BKN220 71 70     96%   72 30.13 30.13      
May 21 01:56 S 5 8 Fog FEW030 SCT150 BKN240 70 70     100%     30.14 30.14      
May 21 00:56 Calm 10 Mostly Cloudy FEW030 SCT120 BKN250 73 70     90%   74 30.16 30.15      
May 20 23:56 SSW 3 10 Mostly Cloudy FEW030 FEW120 BKN150 73 71     94%   74 30.16 30.16      
May 20 22:56 S 7 10 Cloudy SCT120 OVC200 73 70     90%   74 30.16 30.16      
May 20 21:56 Calm 10 Cloudy SCT120 OVC200 75 70     84%   76 30.16 30.16      
May 20 20:56 W 3 10 Mostly Cloudy SCT120 BKN200 75 70     84%   76 30.15 30.15      
May 20 19:56 WSW 3 10 Cloudy BKN120 OVC180 76 70     82%   77 30.15 30.14     0
May 20 18:56 SSW 7 10 Cloudy BKN120 OVC180 77 69     77%   78 30.14 30.14      
May 20 17:56 SSW 8 10 Cloudy BKN120 OVC200 78 68     71%   79 30.13 30.13      
May 20 16:56 SSW 10 10 Cloudy FEW020 SCT120 OVC200 79 69     72%   80 30.13 30.13 0 0  
May 20 15:56 S 13 10 Light Rain FEW017 FEW030 SCT110 BKN200 79 71     77%   82 30.14 30.14 0    
May 20 14:56 W 3 10 Mostly Cloudy SCT026 BKN060 BKN200 79 71     77%   82 30.16 30.15 0    
May 20 14:35 W 9 10 Light Rain FEW015 BKN027 OVC050 77 71     82%   78 30.16   0    
May 20 14:08 SSE 8 10 Mostly Cloudy SCT026 BKN060 BKN200 78 73     85%   80 30.16   0    
May 20 13:56 SE 9 10 Thunderstorms and Light Rain FEW013 SCT025 BKN080 77 73     88%   79 30.17 30.16 0   0
May 20 13:48 SE 9 10 Mostly Cloudy FEW008 SCT025 BKN080 76 73     91%   77 30.17   0    
May 20 13:40   4 Mostly Cloudy SCT008 BKN020 BKN040 75 71     88%   76 30.17   0    
May 20 13:25   2 Thunderstorms and Light Rain and Fog/Mist SCT008 BKN020 BKN040 75 71     88%   76 30.17   0    
May 20 13:08 SSE 15 10 Thunderstorms SCT008 BKN025 BKN043 80 71     74%   84 30.17        
May 20 12:56 S 10 10 Mostly Cloudy SCT008 BKN025 BKN050 83 71     67%   88 30.17 30.16      
May 20 12:31 SSW 6 10 Mostly Cloudy SCT008 BKN025 BKN050 82 71     69%   86 30.17        
May 20 11:56 SSE 6 10 Mostly Cloudy SCT014 SCT025 BKN120 81 71     72%   85 30.18 30.17      
May 20 10:56 S 9 10 Mostly Cloudy FEW011 SCT025 BKN110 79 71     77%   82 30.17 30.17      
May 20 08:56 SSE 6 10 Mostly Cloudy FEW018 SCT025 BKN180 76 73     91%   77 30.16 30.16      
May 20 07:56 S 6 10 Mostly Cloudy BKN017 BKN180 75 72     90%   76 30.15 30.14      
May 20 06:56 ESE 3 10 Mostly Cloudy BKN010 BKN030 73 71     94%   74 30.14 30.14      
May 20 05:56 SE 3 10 Cloudy BKN015 OVC040 72 70     93%   73 30.12 30.12      
May 20 04:56 S 6 10 Mostly Cloudy FEW020 BKN040 72 70     94%   73 30.11 30.11      
May 20 03:56 SSW 6 10 Mostly Cloudy FEW015 BKN030 72 70     93%   73 30.11 30.11      
May 20 02:56 S 6 10 Mostly Cloudy FEW015 BKN020 73 72     94%   75 30.1 30.1      
May 20 01:56 SSW 5 10 Mostly Cloudy SCT017 BKN030 70 70     100%     30.1 30.1      
May 20 00:56 SSW 5 10 Partly Cloudy SCT015 72 70     93%   73 30.13 30.11      
May 19 23:56 SSW 6 10 Partly Cloudy SCT015 SCT200 73 71     94%   74 30.13 30.12      
May 19 23:35 S 8 10 Mostly Cloudy SCT014 BKN210 73 71     94%   74 30.12        
May 19 22:56 SSW 9 10 Cloudy BKN012 OVC200 74 71     91%   75 30.12 30.11      
May 19 21:56 S 10 10 Cloudy BKN013 OVC022 74 71     91%   75 30.1 30.09      
May 19 20:56 SSE 10 10 Cloudy BKN012 OVC180 74 71     91%   75 30.09 30.09      
May 19 19:56 SSE 11 10 Cloudy FEW012 FEW110 OVC180 74 71     91%   75 30.09 30.08      
May 19 18:56 SSE 9 10 Cloudy FEW012 OVC180 75 71     88%   76 30.08 30.08      
May 19 18:42 SSE 13 10 Cloudy FEW012 FEW025 OVC180 75 71     88%   76 30.08        
May 19 17:56 SSE 13 10 Cloudy SCT012 BKN020 OVC120 75 71     88%   76 30.09 30.09      
May 19 16:56 SSE 10 10 Cloudy BKN018 OVC028 75 71     88%   76 30.1 30.1      
May 19 15:56 SE 13 10 Cloudy BKN010 OVC110 76 72     88%   77 30.09 30.09      
May 19 14:56 SE 13 10 Mostly Cloudy SCT008 BKN030 BKN110 76 73     91%   77 30.1 30.1      
May 19 13:56 SSE 5 10 Mostly Cloudy FEW007 BKN030 BKN140 75 72     90%   76 30.1 30.1 0   4
May 19 12:56 ESE 3 4 Light Rain and Fog/Mist FEW009 BKN022 OVC029 73 72     96%   75 30.12 30.11 2    
May 19 12:51 Calm 4 Thunderstorms and Light Rain FEW009 BKN022 OVC027 73 72     94%   75 30.12   2    
May 19 12:26 SSE 6 0.25 Thunderstorms and Heavy Rain BKN005 BKN011 OVC025 72 71     97%   73 30.12   1    
May 19 12:14 SSE 7 0.5 Heavy Rain and Fog BKN005 BKN016 OVC025 72 71     97%   73 30.12   1    
May 19 11:54 NE 7 1 Heavy Rain and Fog/Mist BKN008 BKN017 OVC031 72 70     94%   73 30.11   1    
May 19 10:58 Calm 0.75 Heavy Rain and Fog/Mist BKN008 BKN025 OVC028 74 73     97%   76 30.1   0    
May 19 10:56 Calm 1.5 Heavy Rain and Fog/Mist BKN008 BKN012 OVC028 75 72     90%   76 30.1 30.1 0 0  
May 19 10:54 Calm 2 Light Rain and Fog/Mist BKN008 BKN012 OVC050 75 72     89%   77 30.1   0    
May 19 09:56 SSE 6 4 Light Rain and Fog/Mist BKN008 BKN012 OVC050 75 73     94%   77 30.1 30.1 0    
May 19 08:56 S 7 6 Light Rain and Fog/Mist FEW008 BKN012 OVC030 74 73     97%   76 30.09 30.09 0    
May 19 08:48 S 7 3 Light Rain and Fog/Mist SCT006 BKN010 OVC030 73 73     100%   75 30.09   0    
May 19 07:56 SSE 9 1.5 Rain and Fog/Mist BKN006 OVC010 73 72     96%   75 30.09 30.08 1   1
May 19 07:19 SSE 8 1 Heavy Rain and Fog/Mist BKN006 OVC010 73 72     96%   75 30.08   0    
May 19 06:56 S 9 4 Light Rain and Fog/Mist BKN010 OVC020 73 72     96%   75 30.07 30.07 0    
May 19 05:56 Calm 4 Light Rain and Fog/Mist BKN010 OVC020 72 72     100%   74 30.06 30.05 0    
May 19 05:29 SSE 7 4 Light Rain and Fog/Mist BKN008 BKN014 OVC020 72 70     93%   73 30.05   0    
May 19 04:56 SSE 7 10 Cloudy BKN011 BKN037 OVC049 72 70     93%   73 30.05 30.05 0 0  
May 19 03:56 S 14 5 Rain and Fog/Mist BKN011 OVC020 73 71     94%   74 30.04 30.04 0    
May 19 03:40   5 Light Rain and Fog/Mist SCT013 BKN020 OVC030 74 71     91%   75 30.04   0    
May 19 02:56 SSE 7 10 Cloudy BKN045 OVC060 75 71     88%   76 30.05 30.05      
May 19 01:56 SSE 7 10 Mostly Cloudy SCT022 BKN030 74 71     91%   75 30.05 30.05      
May 19 00:56 SSE 8 10 Mostly Cloudy SCT050 BKN250 74 71     91%   75 30.06 30.06      
May 18 23:56 SSE 8 10 Mostly Cloudy FEW014 SCT050 BKN240 74 71     91%   75 30.07 30.06      
May 18 23:45 SSE 9 10 Mostly Cloudy FEW014 SCT050 BKN240 75 71     88%   76 30.07        
May 18 22:56 SSE 9 10 Mostly Cloudy BKN016 BKN025 75 71     88%   76 30.06 30.06      
May 18 21:56 S 9 10 Mostly Cloudy SCT016 BKN023 75 70     84%   76 30.05 30.05      
May 18 20:56 SSE 10 10 Mostly Cloudy SCT015 BKN023 BKN030 74 70     87%   75 30.03 30.02      
May 18 19:56 SSE 10 10 Mostly Cloudy SCT018 BKN023 BKN120 75 70     84%   76 30.02 30.01     0
May 18 19:39 SSE 11 10 Mostly Cloudy BKN018 BKN023 BKN120 75 69     82%   76 30.01        
May 18 18:56 S 14 10 Mostly Cloudy SCT023 BKN032 BKN120 77 69     77%   78 29.99 29.99      
May 18 18:45 SSE 13 10 Mostly Cloudy SCT023 BKN032 BKN120 78 69     74%   79 29.99        
May 18 17:56 SSE 10 10 Mostly Cloudy BKN020 BKN030 BKN120 79 69     72%   80 29.99 29.98      
May 18 17:36 SSE 13 10 Mostly Cloudy FEW015 BKN025 BKN120 79 70     74%   82 29.99        
May 18 16:56 S 10 10 Mostly Cloudy SCT015 SCT025 BKN120 79 70     74%   82 29.98 29.98 0 0  
May 18 14:56 S 9 10 Cloudy SCT017 BKN035 OVC200 77 71     82%   78 30.01 30.01 0    
May 15 11:56 SSE 17 10 Mostly Cloudy SCT025 BKN035 BKN100 82 71     69%   86 30.05 30.04      
May 15 04:52 SE 8 10 Clear   75 72     89%   77 30        
May 14 20:56 S 7 10 Mostly Cloudy SCT075 BKN200 75 68     79%   76 30.04 30.04      
May 14 13:56 SSE 9 10 Mostly Cloudy SCT035 BKN050 BKN200 85 70     61%   89 30.06 30.06      
May 14 11:56 3 10 Mostly Cloudy BKN030 BKN200 81 68     65%   84 30.09 30.09      
May 14 04:56 Calm 8 Fog FEW002 FEW250 70 68     93%     30.04 30.03      
May 13 08:56 SSW 9 10 Clear CLR 78 69     74%   79 30.12 30.11      
May 13 00:56 S 6 10 Clear CLR 71 69     93%   72 30.12 30.11      
May 12 06:56 Calm 6 Fog FEW040 69 67     93%     30.12 30.11      
May 12 02:56 S 3 10 Clear CLR 66 64     93%       30.1      
May 12 01:56 Calm 10 Clear CLR 70 65     84%     30.11 30.11      
May 11 15:56 N 11 10 Mostly Clear FEW070 93 55     28%   91 30.03 30.03      
May 11 08:56 NW 7 10 Clear CLR 75 63     66%   75   30.07      
Jun 11 23:56 Calm 10 Mostly Cloudy BKN200 72 66     82%   73 30.19 30.19      
Jun 11 19:56 SSE 6 10 Mostly Cloudy FEW150 BKN220 77 63     62%   77 30.18 30.18      
Jun 10 22:56 SSE 6 10 Partly Cloudy SCT250 74 69     85%   75 30.17 30.17      
Jun 10 07:56 Calm 10 Mostly Clear FEW080 73 67     81%   74 30.1 30.09      
Jun 09 14:56 S 10 10 Mostly Cloudy BKN045 BKN250 84 65     53%   86 29.96 29.96      
Jun 09 08:56 SSE 5 10 Mostly Clear FEW250 71 62     73%   71 29.99 29.99      
Jun 08 21:56 E 6 10 Clear CLR 68 60     76%     29.88 29.88      
Notice The following observation data may not be complete
Jun 08 20:56   10 Clear CLR          %              
Jun 08 16:56 NNE 10 10 Partly Cloudy SCT040 76 56     50%   76 29.81 29.81      
Jun 08 08:15 N 14 2 Heavy Rain and Fog/Mist SCT010 BKN015 OVC035 61 59     93%     29.83   0    
Jun 07 18:56   4 Rain and Fog/Mist SCT011 SCT020 OVC050 66 63     90%     29.8 29.8 0    
Jun 07 14:56 NNE 14 10 Cloudy BKN010 BKN015 OVC025 70 67     90%     29.79 29.79 0    
Notice The following observation data may not be complete
Jun 07 14:33   10 Cloudy BKN010 BKN015 OVC020          %         0    
Jun 07 10:37 N 6 1.5 Heavy Rain and Fog/Mist FEW007 BKN025 OVC065 70 68     93%     29.79   0    
Jun 06 02:56 SW 9 10 Mostly Cloudy FEW050 BKN120 73 70     90%   74 29.78 29.78 0    
Jun 05 21:56 WSW 9 8 Thunderstorms and Rain SCT030 BKN045 OVC070 73 70     90%   74 29.81 29.81 0    
Jun 05 16:56   10 Thunderstorms and Rain SCT030 BKN060 BKN090 76 72     88%   77 29.78 29.78 0 0  
Jun 05 16:04 W 7 10 Mostly Cloudy SCT030 BKN045 BKN250 79 72     79%   82 29.75   0